User: anonymous
Location: Unspecified
(0.0000°N, 0.0000°E)
Time: 03:39:57
(UTC+02:00)
Language:

Iridium 33 - Orbit

View from above orbital plane
View from above orbital plane
View from above satellite
View from above satellite

Ground track
Ground track

The orbit data is extracted from the following two-line orbital elements,

1 24946U 97051C   14203.06826081  .00000097  00000-0  27996-4 0  9980
2 24946 086.3879 010.7358 0010144 101.2912 037.4343 14.33160874882030
Epoch (UTC): 22 July 2014 01:38:17
Eccentricity: 0.0010144
inclination: 86.3879°
perigee height: 774 km
apogee height: 788 km
right ascension of ascending node: 10.7358°
argument of perigee: 101.2912°
revolutions per day: 14.33160874
mean anomaly at epoch: 37.4343°
orbit number at epoch: 88203

The dashed part of the orbit path shows where the satellite is in the earth's shadow,  

DLR